MUOS-2

Last updated on Thu Oct 30 2025 00:02:49 GMT+0000 (Coordinated Universal Time)

1 39206U 13036A 25302.54211330 .00000049 00000+0 00000+0 0 9995 2 39206 4.5390 44.8921 0052691 177.5402 190.8684 1.00214739 44887
UTC large
Height (km)
Speed (km/s)
/
Latitude / Longitude
Inclination (degrees)
Orbital Period (minutes)
Azimuth
Elevation
Range (km)
Doppler Factor

Next 0 passes for location: London (51.5072 / 0.1276)

Sorry there are no passes over London.